Location: G�ndlingen
(48.0142°N, 7.6396°E)
Time: 08:07:55
(UTC+00:00)

CREW DRAGON DEMO-1 DEB - Pass Details

Date: 05 July 2020
Orbit: 369 x 372 km, 51.6° (Epoch: 04 August)

Event Time Altitude Azimuth Distance (km) Brightness Sun altitude
Exits shadow 23:50:37 28° 278° (W) 737 4.3 -19.2°
Maximum altitude 23:51:58 55° 345° (NNW) 454 3.5 -19.2°
Drops below altitude 10° 23:54:59 10° 65° (ENE) 1,371 6.0 -19.2°
Sets 23:57:03 0° 70° (ENE) 2,221 7.1 -19.1°
